Simultaneous Nadir Overpasses (SNOs) Predictions

Prediction of SNOs between NOAA-19 and TERRA Satellite Orbit:

Table of predicted SNOs for the next 14.0 days since TLE Epoch: 3/2/2013
Index Date (NOAA-19) Time (NOAA-19) Lat,Lon (NOAA-19) SZA (NOAA-19 ) Date (TERRA) Time (TERRA) Lat,Lon (TERRA) SZA (TERRA ) Distance(km) Time Diff (sec)
1 03/02/2013 23:31:55 69.31,-173.30 76.08 03/02/2013 23:32:39 69.33,-173.31 76.10 2.68 44
2 03/03/2013 00:22:58 -69.16, -5.86 104.09 03/03/2013 00:22:10 -69.16, -5.90 104.08 1.34 48
3 03/05/2013 04:16:21 69.32, 115.58 75.25 03/05/2013 04:17:00 69.34, 115.62 75.27 2.64 39
4 03/05/2013 05:07:24 -69.16, -76.96 104.93 03/05/2013 05:06:31 -69.18, -76.96 104.91 2.10 53
5 03/07/2013 09:00:46 69.29, 44.53 74.37 03/07/2013 09:01:23 69.29, 44.46 74.36 2.95 37
6 03/07/2013 09:51:50 -69.17,-148.07 105.78 03/07/2013 09:50:53 -69.19,-148.05 105.76 1.90 57
7 03/09/2013 13:45:12 69.32, -26.60 73.53 03/09/2013 13:45:45 69.33, -26.58 73.54 1.72 33
8 03/09/2013 14:36:16 -69.19, 140.81 106.62 03/09/2013 14:35:16 -69.18, 140.85 106.63 1.94 60
9 03/11/2013 18:29:37 69.29, -97.66 72.64 03/11/2013 18:30:09 69.31, -97.71 72.65 2.50 32
10 03/11/2013 19:20:41 -69.16, 69.76 107.52 03/11/2013 19:19:40 -69.15, 69.72 107.52 1.62 61
11 03/13/2013 23:14:03 69.33,-168.80 71.81 03/13/2013 23:14:33 69.32,-168.80 71.80 0.53 30
12 03/14/2013 00:05:07 -69.19, -1.38 108.36 03/14/2013 00:04:04 -69.17, -1.36 108.37 1.81 63




NCC Satellite Simultaneous Nadir Overpasses (SNOs) Prediction Service
